Time,TemperatureF,DewpointF,PressureIn,WindDirection,WindDirectionDegrees,WindSpeedMPH,WindSpeedGustMPH,Humidity,HourlyPrecipIn,Conditions,Clouds,dailyrainin,SoftwareType,DateUTC
2013-07-27 00:02:00,59.6,52.5,29.98,ESE,112,0.0,0.0,77,0.00,,,0.00,WUHU21636XXSP,2013-07-27 05:02:00,
2013-07-27 00:07:00,59.6,52.5,29.98,ESE,112,1.2,1.2,77,0.00,,,0.00,WUHU21636XXSP,2013-07-27 05:07:00,
2013-07-27 00:12:00,59.4,52.6,29.98,ESE,112,0.0,1.2,78,0.00,,,0.00,WUHU21636XXSP,2013-07-27 05:12:00,
2013-07-27 00:17:00,59.2,52.1,29.98,ESE,112,0.0,1.2,77,0.00,,,0.00,WUHU21636XXSP,2013-07-27 05:17:00,
2013-07-27 00:22:00,59.2,52.4,29.98,ESE,112,0.0,0.0,78,0.00,,,0.00,WUHU21636XXSP,2013-07-27 05:22:00,
2013-07-27 00:27:00,59.1,52.3,29.98,SE,135,0.0,0.0,78,0.00,,,0.00,WUHU21636XXSP,2013-07-27 05:27:00,
2013-07-27 00:32:00,58.7,51.9,29.98,SE,135,0.0,0.0,78,0.00,,,0.00,WUHU21636XXSP,2013-07-27 05:32:00,
2013-07-27 00:37:00,58.7,51.9,29.98,NNE,22,0.0,0.0,78,0.00,,,0.00,WUHU21636XXSP,2013-07-27 05:37:00,
2013-07-27 00:42:00,58.7,51.6,29.97,North,0,0.0,0.0,77,0.00,,,0.00,WUHU21636XXSP,2013-07-27 05:42:00,
2013-07-27 00:47:00,58.7,51.6,29.98,SW,225,0.0,0.0,77,0.00,,,0.00,WUHU21636XXSP,2013-07-27 05:47:00,
2013-07-27 00:52:00,58.3,51.2,29.98,NNW,337,0.8,0.8,77,0.00,,,0.00,WUHU21636XXSP,2013-07-27 05:52:00,
2013-07-27 00:57:00,58.3,51.2,29.98,NE,45,0.0,0.8,77,0.00,,,0.00,WUHU21636XXSP,2013-07-27 05:57:00,
2013-07-27 01:02:00,58.0,50.9,29.98,ESE,112,0.0,0.8,77,0.00,,,0.00,WUHU21636XXSP,2013-07-27 06:02:00,
2013-07-27 01:07:00,57.8,50.7,29.98,East,90,0.0,0.0,77,0.00,,,0.00,WUHU21636XXSP,2013-07-27 06:07:00,
2013-07-27 01:12:00,57.8,50.7,29.98,East,90,0.0,0.0,77,0.00,,,0.00,WUHU21636XXSP,2013-07-27 06:12:00,
2013-07-27 01:17:00,57.8,50.7,29.98,SE,135,0.0,2.2,77,0.00,,,0.00,WUHU21636XXSP,2013-07-27 06:17:00,
2013-07-27 01:22:00,57.8,50.7,29.98,SSE,157,7.6,7.6,77,0.00,,,0.00,WUHU21636XXSP,2013-07-27 06:22:00,
2013-07-27 01:27:00,57.8,50.7,29.98,SE,135,0.0,7.6,77,0.00,,,0.00,WUHU21636XXSP,2013-07-27 06:27:00,
2013-07-27 01:32:00,57.8,50.3,29.98,SE,135,2.6,7.6,76,0.00,,,0.00,WUHU21636XXSP,2013-07-27 06:32:00,
2013-07-27 01:37:00,58.0,50.5,29.98,SSE,157,0.0,2.6,76,0.00,,,0.00,WUHU21636XXSP,2013-07-27 06:37:00,
2013-07-27 01:42:00,58.0,50.5,29.98,SSE,157,0.0,0.0,76,0.00,,,0.00,WUHU21636XXSP,2013-07-27 06:42:00,
2013-07-27 01:47:00,58.0,50.9,29.98,SE,135,0.0,0.0,77,0.00,,,0.00,WUHU21636XXSP,2013-07-27 06:47:00,
2013-07-27 01:52:00,58.0,50.5,29.98,SE,135,0.0,0.0,76,0.00,,,0.00,WUHU21636XXSP,2013-07-27 06:52:00,
2013-07-27 01:57:00,58.0,50.5,29.98,SSW,202,0.0,0.0,76,0.00,,,0.00,WUHU21636XXSP,2013-07-27 06:57:00,
2013-07-27 02:02:00,58.0,50.5,29.97,SSW,202,0.0,0.0,76,0.00,,,0.00,WUHU21636XXSP,2013-07-27 07:02:00,
2013-07-27 02:07:00,57.8,50.3,29.98,South,180,0.0,0.0,76,0.00,,,0.00,WUHU21636XXSP,2013-07-27 07:07:00,
2013-07-27 02:12:00,57.8,50.3,29.97,South,180,0.0,0.0,76,0.00,,,0.00,WUHU21636XXSP,2013-07-27 07:12:00,
2013-07-27 02:17:00,57.5,49.8,29.97,South,180,0.0,0.0,75,0.00,,,0.00,WUHU21636XXSP,2013-07-27 07:17:00,
2013-07-27 02:22:00,57.5,50.1,29.98,South,180,0.0,0.0,76,0.00,,,0.00,WUHU21636XXSP,2013-07-27 07:22:00,
2013-07-27 02:27:00,57.5,49.8,29.97,South,180,0.0,0.0,75,0.00,,,0.00,WUHU21636XXSP,2013-07-27 07:27:00,
2013-07-27 02:32:00,57.5,49.4,29.98,South,180,0.0,0.0,74,0.00,,,0.00,WUHU21636XXSP,2013-07-27 07:32:00,
2013-07-27 02:37:00,57.3,49.6,29.98,South,180,0.0,0.0,75,0.00,,,0.00,WUHU21636XXSP,2013-07-27 07:37:00,
2013-07-27 02:42:00,57.3,49.6,29.98,South,180,0.0,0.0,75,0.00,,,0.00,WUHU21636XXSP,2013-07-27 07:42:00,
2013-07-27 02:47:00,57.3,49.6,29.98,South,180,0.0,0.0,75,0.00,,,0.00,WUHU21636XXSP,2013-07-27 07:47:00,
2013-07-27 02:52:00,57.3,49.6,29.98,South,180,0.0,0.0,75,0.00,,,0.00,WUHU21636XXSP,2013-07-27 07:52:00,
2013-07-27 02:57:00,57.3,49.6,29.98,SE,135,0.0,0.0,75,0.00,,,0.00,WUHU21636XXSP,2013-07-27 07:57:00,
2013-07-27 03:02:00,57.2,49.5,29.99,SE,135,0.0,0.0,75,0.00,,,0.00,WUHU21636XXSP,2013-07-27 08:02:00,
2013-07-27 03:07:00,57.0,49.3,29.99,ESE,112,0.0,3.4,75,0.00,,,0.00,WUHU21636XXSP,2013-07-27 08:07:00,
2013-07-27 03:12:00,57.0,49.3,29.98,ESE,112,0.0,3.4,75,0.00,,,0.00,WUHU21636XXSP,2013-07-27 08:12:00,
2013-07-27 03:17:00,57.0,49.3,29.99,SE,135,0.0,0.0,75,0.00,,,0.00,WUHU21636XXSP,2013-07-27 08:17:00,
2013-07-27 03:22:00,56.8,49.1,29.99,NNE,22,0.0,0.0,75,0.00,,,0.00,WUHU21636XXSP,2013-07-27 08:22:00,
2013-07-27 03:27:00,56.6,48.1,29.98,ESE,112,0.0,0.0,73,0.00,,,0.00,WUHU21636XXSP,2013-07-27 08:27:00,
2013-07-27 03:32:00,56.4,47.6,29.99,ESE,112,0.0,0.0,72,0.00,,,0.00,WUHU21636XXSP,2013-07-27 08:32:00,
2013-07-27 03:37:00,56.1,47.3,29.99,ESE,112,0.0,0.0,72,0.00,,,0.00,WUHU21636XXSP,2013-07-27 08:37:00,
2013-07-27 03:42:00,55.7,47.2,29.99,ESE,112,0.0,0.0,73,0.00,,,0.00,WUHU21636XXSP,2013-07-27 08:42:00,
2013-07-27 03:47:00,55.7,47.2,29.99,ESE,112,0.0,0.0,73,0.00,,,0.00,WUHU21636XXSP,2013-07-27 08:47:00,
2013-07-27 03:52:00,55.4,47.4,29.99,ESE,112,0.0,0.0,74,0.00,,,0.00,WUHU21636XXSP,2013-07-27 08:52:00,
2013-07-27 03:57:00,55.3,47.3,29.99,ESE,112,0.0,0.0,74,0.00,,,0.00,WUHU21636XXSP,2013-07-27 08:57:00,
2013-07-27 04:02:00,55.3,47.3,29.99,ESE,112,0.0,0.0,74,0.00,,,0.00,WUHU21636XXSP,2013-07-27 09:02:00,
2013-07-27 04:07:00,55.1,47.4,29.99,ESE,112,0.0,0.0,75,0.00,,,0.00,WUHU21636XXSP,2013-07-27 09:07:00,
2013-07-27 04:12:00,55.1,47.8,29.99,SE,135,0.0,0.0,76,0.00,,,0.00,WUHU21636XXSP,2013-07-27 09:12:00,
2013-07-27 04:17:00,55.1,47.8,29.98,SE,135,0.0,0.0,76,0.00,,,0.00,WUHU21636XXSP,2013-07-27 09:17:00,
2013-07-27 04:22:00,54.9,47.6,29.98,South,180,0.0,0.0,76,0.00,,,0.00,WUHU21636XXSP,2013-07-27 09:22:00,
2013-07-27 04:27:00,54.9,47.6,29.99,South,180,0.0,0.0,76,0.00,,,0.00,WUHU21636XXSP,2013-07-27 09:27:00,
2013-07-27 04:32:00,54.9,47.6,29.99,South,180,0.0,0.0,76,0.00,,,0.00,WUHU21636XXSP,2013-07-27 09:32:00,
2013-07-27 04:37:00,54.9,47.2,29.99,South,180,0.0,0.0,75,0.00,,,0.00,WUHU21636XXSP,2013-07-27 09:37:00,
2013-07-27 04:42:00,54.7,47.0,29.99,South,180,0.0,0.0,75,0.00,,,0.00,WUHU21636XXSP,2013-07-27 09:42:00,
2013-07-27 04:47:00,54.7,47.0,29.99,South,180,0.0,0.0,75,0.00,,,0.00,WUHU21636XXSP,2013-07-27 09:47:00,
2013-07-27 04:52:00,54.5,46.5,29.99,East,90,0.0,0.0,74,0.00,,,0.00,WUHU21636XXSP,2013-07-27 09:52:00,
2013-07-27 04:57:00,54.4,46.7,29.99,ESE,112,0.0,0.0,75,0.00,,,0.00,WUHU21636XXSP,2013-07-27 09:57:00,
2013-07-27 05:02:00,54.2,46.5,29.99,ESE,112,0.0,0.0,75,0.00,,,0.00,WUHU21636XXSP,2013-07-27 10:02:00,
2013-07-27 05:07:00,54.0,46.0,29.99,ESE,112,0.0,0.0,74,0.00,,,0.00,WUHU21636XXSP,2013-07-27 10:07:00,
2013-07-27 05:12:00,53.5,45.6,29.99,ESE,112,0.0,0.0,74,0.00,,,0.00,WUHU21636XXSP,2013-07-27 10:12:00,
2013-07-27 05:17:00,53.5,45.9,29.99,ESE,112,0.0,0.0,75,0.00,,,0.00,WUHU21636XXSP,2013-07-27 10:17:00,
2013-07-27 05:22:00,53.4,45.8,29.99,ESE,112,0.0,0.0,75,0.00,,,0.00,WUHU21636XXSP,2013-07-27 10:22:00,
2013-07-27 05:27:00,53.2,45.6,29.99,ESE,112,0.0,0.0,75,0.00,,,0.00,WUHU21636XXSP,2013-07-27 10:27:00,
2013-07-27 05:32:00,53.0,45.4,30.00,ESE,112,0.0,0.0,75,0.00,,,0.00,WUHU21636XXSP,2013-07-27 10:32:00,
2013-07-27 05:37:00,52.8,45.2,30.00,ESE,112,0.0,0.0,75,0.00,,,0.00,WUHU21636XXSP,2013-07-27 10:37:00,
2013-07-27 05:42:00,52.6,45.3,30.00,ESE,112,0.0,0.0,76,0.00,,,0.00,WUHU21636XXSP,2013-07-27 10:42:00,
2013-07-27 05:47:00,52.6,45.7,30.00,ESE,112,0.0,0.0,77,0.00,,,0.00,WUHU21636XXSP,2013-07-27 10:47:00,
2013-07-27 05:52:00,52.5,45.6,30.00,ESE,112,0.0,0.0,77,0.00,,,0.00,WUHU21636XXSP,2013-07-27 10:52:00,
2013-07-27 05:57:00,52.3,45.4,30.00,ESE,112,0.0,0.0,77,0.00,,,0.00,WUHU21636XXSP,2013-07-27 10:57:00,
2013-07-27 06:02:00,52.3,45.4,30.00,ESE,112,0.0,0.0,77,0.00,,,0.00,WUHU21636XXSP,2013-07-27 11:02:00,
2013-07-27 06:07:00,52.3,45.4,30.00,ESE,112,0.0,0.0,77,0.00,,,0.00,WUHU21636XXSP,2013-07-27 11:07:00,
2013-07-27 06:12:00,52.1,45.2,30.00,ESE,112,0.0,0.0,77,0.00,,,0.00,WUHU21636XXSP,2013-07-27 11:12:00,
2013-07-27 06:17:00,52.3,45.4,30.01,ESE,112,0.0,0.0,77,0.00,,,0.00,WUHU21636XXSP,2013-07-27 11:17:00,
2013-07-27 06:22:00,52.3,45.4,30.00,ESE,112,0.0,0.0,77,0.00,,,0.00,WUHU21636XXSP,2013-07-27 11:22:00,
2013-07-27 06:27:00,52.3,45.4,30.00,ESE,112,0.0,0.0,77,0.00,,,0.00,WUHU21636XXSP,2013-07-27 11:27:00,
2013-07-27 06:32:00,52.6,45.3,30.01,ESE,112,0.0,0.0,76,0.00,,,0.00,WUHU21636XXSP,2013-07-27 11:32:00,
2013-07-27 06:37:00,52.6,45.3,30.01,ESE,112,0.0,0.0,76,0.00,,,0.00,WUHU21636XXSP,2013-07-27 11:37:00,
2013-07-27 06:42:00,52.6,45.0,30.01,SE,135,0.0,0.0,75,0.00,,,0.00,WUHU21636XXSP,2013-07-27 11:42:00,
2013-07-27 06:47:00,52.6,45.0,30.01,ESE,112,0.0,0.0,75,0.00,,,0.00,WUHU21636XXSP,2013-07-27 11:47:00,
2013-07-27 06:52:00,52.6,45.0,30.01,ESE,112,0.0,0.0,75,0.00,,,0.00,WUHU21636XXSP,2013-07-27 11:52:00,
2013-07-27 06:57:00,52.6,45.0,30.01,South,180,0.0,0.0,75,0.00,,,0.00,WUHU21636XXSP,2013-07-27 11:57:00,
2013-07-27 07:02:00,52.8,45.2,30.01,South,180,0.0,0.0,75,0.00,,,0.00,WUHU21636XXSP,2013-07-27 12:02:00,
2013-07-27 07:07:00,52.8,45.2,30.01,SW,225,0.0,0.0,75,0.00,,,0.00,WUHU21636XXSP,2013-07-27 12:07:00,
2013-07-27 07:12:00,52.6,45.0,30.01,SSE,157,0.8,0.8,75,0.00,,,0.00,WUHU21636XXSP,2013-07-27 12:12:00,
2013-07-27 07:17:00,52.6,45.0,30.01,SSW,202,2.2,2.2,75,0.00,,,0.00,WUHU21636XXSP,2013-07-27 12:17:00,
2013-07-27 07:22:00,52.6,45.0,30.01,SW,225,0.0,2.2,75,0.00,,,0.00,WUHU21636XXSP,2013-07-27 12:22:00,
2013-07-27 07:27:00,52.6,45.0,30.01,South,180,0.0,2.2,75,0.00,,,0.00,WUHU21636XXSP,2013-07-27 12:27:00,
2013-07-27 07:33:00,52.6,45.0,30.01,ESE,112,4.4,4.4,75,0.00,,,0.00,WUHU21636XXSP,2013-07-27 12:33:00,
2013-07-27 07:37:00,52.6,45.0,30.02,East,90,0.0,4.4,75,0.00,,,0.00,WUHU21636XXSP,2013-07-27 12:37:00,
2013-07-27 07:42:00,52.6,45.0,30.02,ENE,67,0.0,4.4,75,0.00,,,0.00,WUHU21636XXSP,2013-07-27 12:42:00,
2013-07-27 07:47:00,52.8,45.2,30.01,ESE,112,1.6,1.6,75,0.00,,,0.00,WUHU21636XXSP,2013-07-27 12:47:00,
2013-07-27 07:52:00,52.6,44.6,30.01,NE,45,0.0,8.4,74,0.00,,,0.00,WUHU21636XXSP,2013-07-27 12:52:00,
2013-07-27 07:57:00,52.8,45.2,30.01,SW,225,0.0,8.4,75,0.00,,,0.00,WUHU21636XXSP,2013-07-27 12:57:00,
2013-07-27 08:02:00,53.0,45.0,30.01,NNW,337,4.8,4.8,74,0.00,,,0.00,WUHU21636XXSP,2013-07-27 13:02:00,
2013-07-27 08:08:00,53.2,44.9,30.01,ESE,112,0.8,4.8,73,0.00,,,0.00,WUHU21636XXSP,2013-07-27 13:08:00,
2013-07-27 08:13:00,53.0,44.7,30.00,ENE,67,0.0,0.8,73,0.00,,,0.00,WUHU21636XXSP,2013-07-27 13:13:00,
2013-07-27 08:18:00,53.2,44.9,30.00,SSE,157,0.0,0.0,73,0.00,,,0.00,WUHU21636XXSP,2013-07-27 13:18:00,
2013-07-27 08:23:00,53.2,45.3,30.00,ENE,67,0.0,0.0,74,0.00,,,0.00,WUHU21636XXSP,2013-07-27 13:23:00,
2013-07-27 08:28:00,53.2,44.5,30.00,ENE,67,0.0,0.0,72,0.00,,,0.00,WUHU21636XXSP,2013-07-27 13:28:00,
2013-07-27 08:33:00,53.4,44.7,30.00,ENE,67,1.6,3.0,72,0.00,,,0.00,WUHU21636XXSP,2013-07-27 13:33:00,
2013-07-27 08:38:00,53.4,45.1,30.00,SSE,157,0.0,3.0,73,0.00,,,0.00,WUHU21636XXSP,2013-07-27 13:38:00,
2013-07-27 08:43:00,53.5,44.8,29.99,SW,225,0.0,5.2,72,0.00,,,0.00,WUHU21636XXSP,2013-07-27 13:43:00,
2013-07-27 08:48:00,53.5,45.2,29.99,SW,225,0.0,5.2,73,0.00,,,0.00,WUHU21636XXSP,2013-07-27 13:48:00,
2013-07-27 08:53:00,53.8,45.0,29.99,NNE,22,0.0,0.0,72,0.00,,,0.00,WUHU21636XXSP,2013-07-27 13:53:00,
2013-07-27 08:58:00,54.2,45.8,29.99,NNW,337,0.0,0.0,73,0.00,,,0.00,WUHU21636XXSP,2013-07-27 13:58:00,
2013-07-27 09:03:00,54.2,44.7,29.99,NE,45,0.0,0.0,70,0.00,,,0.00,WUHU21636XXSP,2013-07-27 14:03:00,
2013-07-27 09:08:00,54.2,45.1,29.99,East,90,0.0,0.0,71,0.00,,,0.00,WUHU21636XXSP,2013-07-27 14:08:00,
2013-07-27 09:13:00,54.4,45.7,29.99,SSW,202,3.4,3.4,72,0.00,,,0.00,WUHU21636XXSP,2013-07-27 14:13:00,
2013-07-27 09:18:00,54.7,45.6,29.99,South,180,0.0,3.4,71,0.00,,,0.00,WUHU21636XXSP,2013-07-27 14:18:00,
2013-07-27 09:23:00,55.1,46.0,29.99,West,270,2.6,2.6,71,0.00,,,0.00,WUHU21636XXSP,2013-07-27 14:23:00,
2013-07-27 09:28:00,55.4,45.9,29.98,West,270,0.0,2.6,70,0.00,,,0.00,WUHU21636XXSP,2013-07-27 14:28:00,
2013-07-27 09:33:00,55.7,45.8,29.98,ESE,112,3.0,3.0,69,0.00,,,0.00,WUHU21636XXSP,2013-07-27 14:33:00,
2013-07-27 09:38:00,55.9,46.3,29.98,SSE,157,0.0,3.0,70,0.00,,,0.00,WUHU21636XXSP,2013-07-27 14:38:00,
2013-07-27 09:43:00,56.3,46.4,29.98,South,180,0.0,3.0,69,0.00,,,0.00,WUHU21636XXSP,2013-07-27 14:43:00,
2013-07-27 09:48:00,56.4,46.5,29.98,SW,225,0.0,0.0,69,0.00,,,0.00,WUHU21636XXSP,2013-07-27 14:48:00,
2013-07-27 09:53:00,56.4,46.5,29.98,SE,135,0.0,0.0,69,0.00,,,0.00,WUHU21636XXSP,2013-07-27 14:53:00,
2013-07-27 09:58:00,56.4,46.1,29.98,East,90,0.0,0.0,68,0.00,,,0.00,WUHU21636XXSP,2013-07-27 14:58:00,
2013-07-27 10:03:00,56.4,46.1,29.98,ESE,112,0.0,0.0,68,0.00,,,0.00,WUHU21636XXSP,2013-07-27 15:03:00,
2013-07-27 10:08:00,56.4,45.7,29.98,SW,225,0.0,0.0,67,0.00,,,0.00,WUHU21636XXSP,2013-07-27 15:08:00,
2013-07-27 10:13:00,56.4,46.5,29.98,SSE,157,0.0,0.0,69,0.00,,,0.00,WUHU21636XXSP,2013-07-27 15:13:00,
2013-07-27 10:18:00,56.8,46.5,29.98,East,90,0.0,0.0,68,0.00,,,0.00,WUHU21636XXSP,2013-07-27 15:18:00,
2013-07-27 10:23:00,56.8,46.5,29.97,SE,135,1.2,1.2,68,0.00,,,0.00,WUHU21636XXSP,2013-07-27 15:23:00,
2013-07-27 10:28:00,57.0,46.3,29.98,ENE,67,0.0,1.2,67,0.00,,,0.00,WUHU21636XXSP,2013-07-27 15:28:00,
2013-07-27 10:33:00,57.0,46.3,29.97,ENE,67,0.0,0.0,67,0.00,,,0.00,WUHU21636XXSP,2013-07-27 15:33:00,
2013-07-27 10:38:00,57.0,46.7,29.97,East,90,0.0,0.0,68,0.00,,,0.00,WUHU21636XXSP,2013-07-27 15:38:00,
2013-07-27 10:43:00,57.2,47.3,29.97,NE,45,0.0,0.0,69,0.00,,,0.00,WUHU21636XXSP,2013-07-27 15:43:00,
2013-07-27 10:48:00,57.2,46.5,29.97,NW,315,0.0,0.0,67,0.00,,,0.00,WUHU21636XXSP,2013-07-27 15:48:00,
2013-07-27 10:53:00,57.5,46.4,29.97,SSE,157,1.6,12.8,66,0.00,,,0.00,WUHU21636XXSP,2013-07-27 15:53:00,
2013-07-27 10:58:00,58.3,47.1,29.97,NW,315,0.0,12.8,66,0.00,,,0.00,WUHU21636XXSP,2013-07-27 15:58:00,
2013-07-27 11:03:00,58.3,46.7,29.97,ENE,67,0.0,1.6,65,0.00,,,0.00,WUHU21636XXSP,2013-07-27 16:03:00,
2013-07-27 11:08:00,58.5,46.5,29.97,ENE,67,3.0,3.0,64,0.00,,,0.00,WUHU21636XXSP,2013-07-27 16:08:00,
2013-07-27 11:13:00,58.3,46.7,29.96,East,90,0.0,4.4,65,0.00,,,0.00,WUHU21636XXSP,2013-07-27 16:13:00,
2013-07-27 11:18:00,58.7,47.1,29.96,South,180,1.6,4.4,65,0.00,,,0.00,WUHU21636XXSP,2013-07-27 16:18:00,
2013-07-27 11:23:00,58.7,47.1,29.96,SSE,157,0.0,4.0,65,0.00,,,0.00,WUHU21636XXSP,2013-07-27 16:23:00,
2013-07-27 11:28:00,59.2,47.2,29.96,West,270,1.6,1.6,64,0.00,,,0.00,WUHU21636XXSP,2013-07-27 16:28:00,
2013-07-27 11:33:00,59.2,47.6,29.96,SSE,157,0.0,1.6,65,0.00,,,0.00,WUHU21636XXSP,2013-07-27 16:33:00,
2013-07-27 11:38:00,59.4,45.7,29.96,ESE,109,4.1,5.8,60,0.00,,,0.00,WUHU21636XXSP,2013-07-27 16:38:00,
2013-07-27 11:43:00,59.4,46.5,29.96,NNE,22,0.0,5.8,62,0.00,,,0.00,WUHU21636XXSP,2013-07-27 16:43:00,
2013-07-27 11:48:00,59.6,46.7,29.96,ESE,112,0.0,3.0,62,0.00,,,0.00,WUHU21636XXSP,2013-07-27 16:48:00,
2013-07-27 11:53:00,59.6,47.6,29.96,ESE,112,0.0,3.0,64,0.00,,,0.00,WUHU21636XXSP,2013-07-27 16:53:00,
2013-07-27 11:58:00,59.2,47.2,29.96,SSE,157,0.0,0.0,64,0.00,,,0.00,WUHU21636XXSP,2013-07-27 16:58:00,
2013-07-27 12:03:00,58.9,47.3,29.96,SSE,157,0.0,0.0,65,0.00,,,0.00,WUHU21636XXSP,2013-07-27 17:03:00,
2013-07-27 12:08:00,59.1,47.5,29.96,SSE,157,0.0,0.0,65,0.00,,,0.00,WUHU21636XXSP,2013-07-27 17:08:00,
2013-07-27 12:13:00,59.2,47.2,29.95,SSE,157,0.0,0.0,64,0.00,,,0.00,WUHU21636XXSP,2013-07-27 17:13:00,
2013-07-27 12:18:00,59.2,47.2,29.95,SE,135,0.0,0.0,64,0.00,,,0.00,WUHU21636XXSP,2013-07-27 17:18:00,
2013-07-27 12:23:00,59.4,47.4,29.95,South,180,0.0,0.0,64,0.00,,,0.00,WUHU21636XXSP,2013-07-27 17:23:00,
2013-07-27 12:28:00,59.4,47.0,29.95,SSW,202,6.6,6.6,63,0.00,,,0.00,WUHU21636XXSP,2013-07-27 17:28:00,
2013-07-27 12:33:00,59.4,47.4,29.95,NNE,22,0.0,6.6,64,0.00,,,0.00,WUHU21636XXSP,2013-07-27 17:33:00,
2013-07-27 12:38:00,59.4,47.0,29.95,WSW,247,6.2,6.2,63,0.00,,,0.00,WUHU21636XXSP,2013-07-27 17:38:00,
2013-07-27 12:43:00,59.2,46.3,29.95,SSE,157,0.0,6.2,62,0.00,,,0.00,WUHU21636XXSP,2013-07-27 17:43:00,
2013-07-27 12:48:00,59.2,46.8,29.95,ESE,112,0.0,0.0,63,0.00,,,0.00,WUHU21636XXSP,2013-07-27 17:48:00,
2013-07-27 12:53:00,59.2,47.2,29.95,South,180,0.0,0.0,64,0.00,,,0.00,WUHU21636XXSP,2013-07-27 17:53:00,
2013-07-27 12:58:00,59.2,47.2,29.95,South,180,0.0,0.0,64,0.00,,,0.00,WUHU21636XXSP,2013-07-27 17:58:00,
2013-07-27 13:03:00,59.6,47.6,29.94,South,180,0.0,0.0,64,0.00,,,0.00,WUHU21636XXSP,2013-07-27 18:03:00,
2013-07-27 13:08:00,59.8,48.2,29.94,SSE,157,0.0,0.0,65,0.00,,,0.00,WUHU21636XXSP,2013-07-27 18:08:00,
2013-07-27 13:13:00,60.2,47.7,29.94,South,180,0.0,0.0,63,0.00,,,0.00,WUHU21636XXSP,2013-07-27 18:13:00,
2013-07-27 13:18:00,60.4,47.9,29.94,SSE,157,0.0,0.0,63,0.00,,,0.00,WUHU21636XXSP,2013-07-27 18:18:00,
2013-07-27 13:23:00,60.8,48.3,29.94,SE,135,0.0,3.0,63,0.00,,,0.00,WUHU21636XXSP,2013-07-27 18:23:00,
2013-07-27 13:28:00,60.8,48.7,29.94,SE,135,0.0,3.0,64,0.00,,,0.00,WUHU21636XXSP,2013-07-27 18:28:00,
2013-07-27 13:33:00,61.0,48.5,29.94,SE,135,0.0,0.0,63,0.00,,,0.00,WUHU21636XXSP,2013-07-27 18:33:00,
2013-07-27 13:38:00,60.8,47.8,29.94,SSE,157,0.0,0.0,62,0.00,,,0.00,WUHU21636XXSP,2013-07-27 18:38:00,
2013-07-27 13:43:00,60.4,47.4,29.94,SSW,202,0.0,0.0,62,0.00,,,0.00,WUHU21636XXSP,2013-07-27 18:43:00,
2013-07-27 13:48:00,60.2,47.7,29.94,East,90,0.0,0.0,63,0.00,,,0.00,WUHU21636XXSP,2013-07-27 18:48:00,
2013-07-27 13:53:00,59.8,47.4,29.93,ENE,67,0.0,0.0,63,0.00,,,0.00,WUHU21636XXSP,2013-07-27 18:53:00,
2013-07-27 13:58:00,59.6,47.6,29.93,ENE,67,0.0,0.0,64,0.00,,,0.00,WUHU21636XXSP,2013-07-27 18:58:00,
2013-07-27 14:03:00,59.6,47.6,29.93,ENE,67,0.0,0.0,64,0.00,,,0.00,WUHU21636XXSP,2013-07-27 19:03:00,
2013-07-27 14:08:00,59.4,47.8,29.93,South,180,0.0,0.0,65,0.00,,,0.00,WUHU21636XXSP,2013-07-27 19:08:00,
2013-07-27 14:13:00,59.2,47.6,29.93,South,180,0.0,0.0,65,0.00,,,0.00,WUHU21636XXSP,2013-07-27 19:13:00,
2013-07-27 14:18:00,59.2,47.6,29.93,South,180,0.0,0.0,65,0.00,,,0.00,WUHU21636XXSP,2013-07-27 19:18:00,
2013-07-27 14:23:00,59.4,48.2,29.93,South,180,0.0,0.0,66,0.00,,,0.00,WUHU21636XXSP,2013-07-27 19:23:00,
2013-07-27 14:28:00,59.6,48.4,29.92,South,180,0.0,0.0,66,0.00,,,0.00,WUHU21636XXSP,2013-07-27 19:28:00,
2013-07-27 14:33:00,59.8,49.4,29.93,South,180,0.0,0.0,68,0.00,,,0.00,WUHU21636XXSP,2013-07-27 19:33:00,
2013-07-27 14:38:00,59.6,49.2,29.93,South,180,0.0,0.0,68,0.00,,,0.00,WUHU21636XXSP,2013-07-27 19:38:00,
2013-07-27 14:43:00,59.4,49.4,29.93,South,180,0.0,0.0,69,0.00,,,0.00,WUHU21636XXSP,2013-07-27 19:43:00,
2013-07-27 14:48:00,59.4,49.8,29.94,South,180,0.0,0.0,70,0.00,,,0.00,WUHU21636XXSP,2013-07-27 19:48:00,
2013-07-27 14:53:00,59.2,49.6,29.94,SSW,202,0.0,0.0,70,0.00,,,0.00,WUHU21636XXSP,2013-07-27 19:53:00,
2013-07-27 14:58:00,59.1,49.5,29.94,SW,225,0.0,0.0,70,0.00,,,0.00,WUHU21636XXSP,2013-07-27 19:58:00,
2013-07-27 15:03:00,58.7,49.8,29.94,ENE,67,0.0,0.0,72,0.00,,,0.00,WUHU21636XXSP,2013-07-27 20:03:00,
2013-07-27 15:08:00,58.5,50.0,29.94,NW,315,0.0,0.0,73,0.00,,,0.00,WUHU21636XXSP,2013-07-27 20:08:00,
2013-07-27 15:13:00,58.2,49.7,29.93,South,180,0.0,0.0,73,0.00,,,0.00,WUHU21636XXSP,2013-07-27 20:13:00,
2013-07-27 15:18:00,57.8,49.3,29.93,South,180,0.8,0.8,73,0.00,,,0.00,WUHU21636XXSP,2013-07-27 20:18:00,
2013-07-27 15:23:00,58.0,49.8,29.93,West,270,0.0,0.8,74,0.00,,,0.00,WUHU21636XXSP,2013-07-27 20:23:00,
2013-07-27 15:28:00,57.8,50.0,29.94,NW,315,0.0,0.8,75,0.00,,,0.00,WUHU21636XXSP,2013-07-27 20:28:00,
2013-07-27 15:33:00,57.3,49.6,29.94,West,270,0.0,0.0,75,0.00,,,0.00,WUHU21636XXSP,2013-07-27 20:33:00,
2013-07-27 15:38:00,57.2,49.8,29.93,SW,225,0.0,0.0,76,0.00,,,0.00,WUHU21636XXSP,2013-07-27 20:38:00,
2013-07-27 15:43:00,57.3,49.9,29.94,ESE,112,0.0,0.0,76,0.00,,,0.00,WUHU21636XXSP,2013-07-27 20:43:00,
2013-07-27 15:48:00,57.2,49.5,29.94,SSW,202,3.0,3.0,75,0.00,,,0.00,WUHU21636XXSP,2013-07-27 20:48:00,
2013-07-27 15:53:00,57.0,48.9,29.94,WSW,247,0.0,3.0,74,0.00,,,0.00,WUHU21636XXSP,2013-07-27 20:53:00,
2013-07-27 15:58:00,56.8,48.4,29.94,WSW,247,0.8,6.2,73,0.00,,,0.00,WUHU21636XXSP,2013-07-27 20:58:00,
2013-07-27 16:03:00,56.6,48.1,29.94,West,270,0.4,6.2,73,0.00,,,0.00,WUHU21636XXSP,2013-07-27 21:03:00,
2013-07-27 16:08:00,56.6,48.9,29.93,ESE,112,0.0,0.4,75,0.00,,,0.00,WUHU21636XXSP,2013-07-27 21:08:00,
2013-07-27 16:13:00,56.6,48.9,29.94,South,180,0.0,3.0,75,0.00,,,0.00,WUHU21636XXSP,2013-07-27 21:13:00,
2013-07-27 16:18:00,56.4,48.7,29.94,WNW,292,0.0,3.0,75,0.00,,,0.00,WUHU21636XXSP,2013-07-27 21:18:00,
2013-07-27 16:23:00,56.4,48.7,29.94,SSW,202,0.0,0.0,75,0.00,,,0.00,WUHU21636XXSP,2013-07-27 21:23:00,
2013-07-27 16:28:00,56.4,48.7,29.94,SSW,202,0.0,0.0,75,0.00,,,0.00,WUHU21636XXSP,2013-07-27 21:28:00,
2013-07-27 16:33:00,56.4,47.9,29.94,South,180,1.6,1.6,73,0.00,,,0.00,WUHU21636XXSP,2013-07-27 21:33:00,
2013-07-27 16:38:00,56.4,47.6,29.94,SE,135,4.4,4.4,72,0.00,,,0.00,WUHU21636XXSP,2013-07-27 21:38:00,
2013-07-27 16:43:00,56.4,47.6,29.94,SSW,202,0.0,4.4,72,0.00,,,0.00,WUHU21636XXSP,2013-07-27 21:43:00,
2013-07-27 16:48:00,56.4,47.6,29.94,West,270,0.0,4.4,72,0.00,,,0.00,WUHU21636XXSP,2013-07-27 21:48:00,
2013-07-27 16:53:00,56.3,47.8,29.93,East,90,0.0,0.0,73,0.00,,,0.00,WUHU21636XXSP,2013-07-27 21:53:00,
2013-07-27 16:58:00,56.4,48.3,29.93,West,270,2.6,2.6,74,0.00,,,0.00,WUHU21636XXSP,2013-07-27 21:58:00,
2013-07-27 17:03:00,56.4,47.6,29.93,ESE,112,0.0,2.6,72,0.00,,,0.00,WUHU21636XXSP,2013-07-27 22:03:00,
2013-07-27 17:08:00,56.6,48.1,29.93,South,180,0.0,0.0,73,0.00,,,0.00,WUHU21636XXSP,2013-07-27 22:08:00,
2013-07-27 17:13:00,57.0,48.2,29.93,SE,135,3.4,3.4,72,0.00,,,0.00,WUHU21636XXSP,2013-07-27 22:13:00,
2013-07-27 17:18:00,57.3,47.8,29.93,West,270,0.0,3.4,70,0.00,,,0.00,WUHU21636XXSP,2013-07-27 22:18:00,
2013-07-27 17:23:00,57.5,48.3,29.93,WSW,247,0.0,0.0,71,0.00,,,0.00,WUHU21636XXSP,2013-07-27 22:23:00,
2013-07-27 17:28:00,57.8,48.9,29.93,West,270,0.0,0.0,72,0.00,,,0.00,WUHU21636XXSP,2013-07-27 22:28:00,
2013-07-27 17:33:00,58.0,48.7,29.93,SE,135,0.0,0.0,71,0.00,,,0.00,WUHU21636XXSP,2013-07-27 22:33:00,
2013-07-27 17:38:00,57.8,48.2,29.93,NW,315,0.0,0.0,70,0.00,,,0.00,WUHU21636XXSP,2013-07-27 22:38:00,
2013-07-27 17:43:00,57.8,48.2,29.92,SSE,157,6.2,6.2,70,0.00,,,0.00,WUHU21636XXSP,2013-07-27 22:43:00,
2013-07-27 17:48:00,57.5,48.3,29.92,SE,135,0.0,6.2,71,0.00,,,0.00,WUHU21636XXSP,2013-07-27 22:48:00,
2013-07-27 17:53:00,57.5,48.0,29.92,SW,225,0.0,0.0,70,0.00,,,0.00,WUHU21636XXSP,2013-07-27 22:53:00,
2013-07-27 17:58:00,57.5,48.0,29.92,SSW,202,0.0,0.0,70,0.00,,,0.00,WUHU21636XXSP,2013-07-27 22:58:00,
2013-07-27 18:03:00,57.3,48.1,29.92,SSW,202,0.0,0.0,71,0.00,,,0.00,WUHU21636XXSP,2013-07-27 23:03:00,
2013-07-27 18:08:00,57.2,47.7,29.92,SW,225,0.0,0.0,70,0.00,,,0.00,WUHU21636XXSP,2013-07-27 23:08:00,
2013-07-27 18:13:00,57.2,48.0,29.92,SSE,157,8.0,8.0,71,0.00,,,0.00,WUHU21636XXSP,2013-07-27 23:13:00,
2013-07-27 18:18:00,57.2,48.0,29.92,NE,45,0.0,8.0,71,0.00,,,0.00,WUHU21636XXSP,2013-07-27 23:18:00,
2013-07-27 18:23:00,57.0,47.8,29.92,North,0,0.0,8.0,71,0.00,,,0.00,WUHU21636XXSP,2013-07-27 23:23:00,
2013-07-27 18:28:00,57.0,47.8,29.92,West,270,0.0,0.0,71,0.00,,,0.00,WUHU21636XXSP,2013-07-27 23:28:00,
2013-07-27 18:33:00,57.0,48.2,29.92,SW,225,0.0,0.0,72,0.00,,,0.00,WUHU21636XXSP,2013-07-27 23:33:00,
2013-07-27 18:38:00,57.0,48.2,29.92,SW,225,0.0,0.0,72,0.00,,,0.00,WUHU21636XXSP,2013-07-27 23:38:00,
2013-07-27 18:43:00,57.0,48.6,29.92,East,90,0.0,0.0,73,0.00,,,0.00,WUHU21636XXSP,2013-07-27 23:43:00,
2013-07-27 18:48:00,57.0,48.6,29.92,ESE,112,0.0,0.0,73,0.00,,,0.00,WUHU21636XXSP,2013-07-27 23:48:00,
2013-07-27 18:53:00,57.2,48.8,29.92,SW,225,0.0,0.0,73,0.00,,,0.00,WUHU21636XXSP,2013-07-27 23:53:00,
2013-07-27 18:58:00,57.2,48.8,29.93,WSW,247,0.0,0.0,73,0.00,,,0.00,WUHU21636XXSP,2013-07-27 23:58:00,
2013-07-27 19:03:00,57.2,48.8,29.93,West,270,0.0,0.0,73,0.00,,,0.00,WUHU21636XXSP,2013-07-28 00:03:00,
2013-07-27 19:08:00,57.0,48.6,29.92,SSE,157,0.0,0.0,73,0.00,,,0.00,WUHU21636XXSP,2013-07-28 00:08:00,
2013-07-27 19:13:00,57.0,48.6,29.92,SE,135,1.2,1.2,73,0.00,,,0.00,WUHU21636XXSP,2013-07-28 00:13:00,
2013-07-27 19:18:00,57.0,48.6,29.92,SSW,202,0.0,1.2,73,0.00,,,0.00,WUHU21636XXSP,2013-07-28 00:18:00,
2013-07-27 19:23:00,57.0,48.6,29.92,SSE,157,0.0,1.2,73,0.00,,,0.00,WUHU21636XXSP,2013-07-28 00:23:00,
2013-07-27 19:28:00,56.6,48.5,29.92,SE,135,0.0,0.0,74,0.00,,,0.00,WUHU21636XXSP,2013-07-28 00:28:00,
2013-07-27 19:33:00,56.6,48.1,29.91,SW,225,0.0,0.0,73,0.00,,,0.00,WUHU21636XXSP,2013-07-28 00:33:00,
2013-07-27 19:38:00,56.6,48.1,29.91,SSE,157,0.0,0.0,73,0.00,,,0.00,WUHU21636XXSP,2013-07-28 00:38:00,
2013-07-27 19:43:00,56.6,48.5,29.92,SSE,157,0.0,0.0,74,0.00,,,0.00,WUHU21636XXSP,2013-07-28 00:43:00,
2013-07-27 19:48:00,56.4,48.3,29.91,SSE,157,0.0,0.0,74,0.00,,,0.00,WUHU21636XXSP,2013-07-28 00:48:00,
2013-07-27 19:53:00,56.4,48.3,29.91,South,180,0.0,0.0,74,0.00,,,0.00,WUHU21636XXSP,2013-07-28 00:53:00,
2013-07-27 19:58:00,56.4,47.9,29.91,South,180,0.0,0.0,73,0.00,,,0.00,WUHU21636XXSP,2013-07-28 00:58:00,
2013-07-27 20:03:00,56.4,48.3,29.91,South,180,0.0,0.0,74,0.00,,,0.00,WUHU21636XXSP,2013-07-28 01:03:00,
2013-07-27 20:08:00,56.4,48.3,29.91,South,180,0.0,0.0,74,0.00,,,0.00,WUHU21636XXSP,2013-07-28 01:08:00,
2013-07-27 20:13:00,56.4,48.7,29.91,South,180,0.0,0.0,75,0.00,,,0.00,WUHU21636XXSP,2013-07-28 01:13:00,
2013-07-27 20:18:00,56.4,48.7,29.91,South,180,0.0,0.0,75,0.00,,,0.00,WUHU21636XXSP,2013-07-28 01:18:00,
2013-07-27 20:23:00,56.3,48.5,29.91,South,180,0.0,0.0,75,0.00,,,0.00,WUHU21636XXSP,2013-07-28 01:23:00,
2013-07-27 20:28:00,56.3,48.5,29.91,SE,135,0.0,0.0,75,0.00,,,0.00,WUHU21636XXSP,2013-07-28 01:28:00,
2013-07-27 20:33:00,56.3,48.5,29.90,ESE,112,0.0,0.0,75,0.00,,,0.00,WUHU21636XXSP,2013-07-28 01:33:00,
2013-07-27 20:38:00,56.1,48.7,29.91,ESE,112,0.0,0.0,76,0.00,,,0.00,WUHU21636XXSP,2013-07-28 01:38:00,
2013-07-27 20:43:00,56.1,48.7,29.91,ESE,112,0.0,0.0,76,0.00,,,0.00,WUHU21636XXSP,2013-07-28 01:43:00,
2013-07-27 20:48:00,55.9,48.5,29.91,ESE,112,0.0,0.0,76,0.00,,,0.00,WUHU21636XXSP,2013-07-28 01:48:00,
2013-07-27 20:53:00,55.9,48.8,29.91,ESE,112,0.0,0.0,77,0.00,,,0.00,WUHU21636XXSP,2013-07-28 01:53:00,
2013-07-27 20:58:00,55.9,48.5,29.91,ESE,112,0.0,0.0,76,0.00,,,0.00,WUHU21636XXSP,2013-07-28 01:58:00,
2013-07-27 21:03:00,55.9,48.8,29.91,ESE,112,0.0,0.0,77,0.00,,,0.00,WUHU21636XXSP,2013-07-28 02:03:00,
2013-07-27 21:08:00,55.9,48.8,29.91,ESE,112,0.0,0.0,77,0.00,,,0.00,WUHU21636XXSP,2013-07-28 02:08:00,
2013-07-27 21:13:00,55.7,48.6,29.91,ESE,112,0.0,0.0,77,0.00,,,0.00,WUHU21636XXSP,2013-07-28 02:13:00,
2013-07-27 21:18:00,55.7,48.6,29.91,ESE,112,0.0,0.0,77,0.00,,,0.00,WUHU21636XXSP,2013-07-28 02:18:00,
2013-07-27 21:23:00,55.7,49.0,29.91,ESE,112,0.0,0.0,78,0.00,,,0.00,WUHU21636XXSP,2013-07-28 02:23:00,
2013-07-27 21:28:00,55.4,49.1,29.91,ESE,112,0.0,0.0,79,0.00,,,0.00,WUHU21636XXSP,2013-07-28 02:28:00,
2013-07-27 21:33:00,55.3,49.0,29.91,ESE,112,0.0,0.0,79,0.00,,,0.00,WUHU21636XXSP,2013-07-28 02:33:00,
2013-07-27 21:38:00,55.3,49.0,29.91,ESE,112,0.0,0.0,79,0.00,,,0.00,WUHU21636XXSP,2013-07-28 02:38:00,
2013-07-27 21:43:00,55.1,48.8,29.91,ESE,112,0.0,0.0,79,0.00,,,0.00,WUHU21636XXSP,2013-07-28 02:43:00,
2013-07-27 21:48:00,55.1,48.8,29.91,ESE,112,0.0,0.0,79,0.00,,,0.00,WUHU21636XXSP,2013-07-28 02:48:00,
2013-07-27 21:53:00,54.7,48.7,29.91,SSE,157,0.0,0.0,80,0.00,,,0.00,WUHU21636XXSP,2013-07-28 02:53:00,
2013-07-27 21:58:00,54.7,48.7,29.91,SSE,157,0.0,0.0,80,0.00,,,0.00,WUHU21636XXSP,2013-07-28 02:58:00,
2013-07-27 22:03:00,54.7,48.7,29.91,South,180,0.0,0.0,80,0.00,,,0.00,WUHU21636XXSP,2013-07-28 03:03:00,
2013-07-27 22:08:00,54.7,48.4,29.91,West,270,0.0,0.0,79,0.00,,,0.00,WUHU21636XXSP,2013-07-28 03:08:00,
2013-07-27 22:13:00,54.5,48.2,29.91,West,270,0.0,0.0,79,0.00,,,0.00,WUHU21636XXSP,2013-07-28 03:13:00,
2013-07-27 22:18:00,54.4,48.1,29.91,West,270,0.0,0.0,79,0.00,,,0.00,WUHU21636XXSP,2013-07-28 03:18:00,
2013-07-27 22:23:00,54.2,48.2,29.91,SW,225,0.0,0.0,80,0.00,,,0.00,WUHU21636XXSP,2013-07-28 03:23:00,
2013-07-27 22:28:00,54.2,48.2,29.91,SW,225,0.0,0.0,80,0.00,,,0.00,WUHU21636XXSP,2013-07-28 03:28:00,
2013-07-27 22:33:00,54.2,48.2,29.91,SW,225,0.0,0.0,80,0.00,,,0.00,WUHU21636XXSP,2013-07-28 03:33:00,
2013-07-27 22:38:00,54.2,48.2,29.91,West,270,0.0,0.0,80,0.00,,,0.00,WUHU21636XXSP,2013-07-28 03:38:00,
2013-07-27 22:43:00,54.0,48.0,29.91,West,270,0.0,0.0,80,0.00,,,0.00,WUHU21636XXSP,2013-07-28 03:43:00,
2013-07-27 22:48:00,54.2,48.2,29.91,West,270,0.0,0.0,80,0.00,,,0.00,WUHU21636XXSP,2013-07-28 03:48:00,
2013-07-27 22:53:00,54.0,48.0,29.91,West,270,0.0,0.0,80,0.00,,,0.00,WUHU21636XXSP,2013-07-28 03:53:00,
2013-07-27 22:58:00,54.2,48.5,29.91,West,270,0.0,0.0,81,0.00,,,0.00,WUHU21636XXSP,2013-07-28 03:58:00,
2013-07-27 23:01:00,54.2,48.5,29.91,West,270,0.0,0.0,81,0.00,,,0.00,WUHU21636XXSP,2013-07-28 04:01:00,
2013-07-27 23:06:00,54.2,48.5,29.91,West,270,0.0,0.0,81,0.00,,,0.00,WUHU21636XXSP,2013-07-28 04:06:00,
2013-07-27 23:11:00,54.2,48.5,29.91,SE,135,0.0,0.0,81,0.00,,,0.00,WUHU21636XXSP,2013-07-28 04:11:00,
2013-07-27 23:16:00,54.2,48.5,29.90,SE,135,0.0,0.0,81,0.00,,,0.00,WUHU21636XXSP,2013-07-28 04:16:00,
2013-07-27 23:21:00,54.2,48.5,29.90,SE,135,0.0,0.0,81,0.00,,,0.00,WUHU21636XXSP,2013-07-28 04:21:00,
2013-07-27 23:27:00,54.2,48.5,29.90,SE,135,0.0,0.0,81,0.00,,,0.00,WUHU21636XXSP,2013-07-28 04:27:00,
2013-07-27 23:32:00,54.2,48.5,29.90,SSW,202,0.0,0.0,81,0.00,,,0.00,WUHU21636XXSP,2013-07-28 04:32:00,
2013-07-27 23:37:00,54.2,48.2,29.90,SE,135,0.0,0.0,80,0.00,,,0.00,WUHU21636XXSP,2013-07-28 04:37:00,
2013-07-27 23:42:00,54.2,48.2,29.90,SE,135,0.0,0.0,80,0.00,,,0.00,WUHU21636XXSP,2013-07-28 04:42:00,
2013-07-27 23:47:00,54.2,48.2,29.90,SE,135,0.0,0.0,80,0.00,,,0.00,WUHU21636XXSP,2013-07-28 04:47:00,
2013-07-27 23:52:00,54.2,48.2,29.90,SE,135,0.0,0.0,80,0.00,,,0.00,WUHU21636XXSP,2013-07-28 04:52:00,
2013-07-27 23:57:00,54.2,48.2,29.90,SW,225,0.0,0.0,80,0.00,,,0.00,WUHU21636XXSP,2013-07-28 04:57:00,